Location: Unspecified
(0.0000°N, 0.0000°E)
Time: 09:23:06
(UTC+00:00)

ARIANE 1 DEB - Pass Details

Date: 18 February 2026
Orbit: 1090 x 21662 km, 16.1° (Epoch: 9 December)

Event Time Altitude Azimuth Distance (km) Brightness Sun altitude
Rises 05:40:11 0° 254° (WSW) 24,857 ? -8.3°
Reaches altitude 10° 06:45:45 10° 257° (WSW) 15,877 ? 7.8°
Maximum altitude 07:34:42 67° 337° (NNW) 2,715 ? 19.8°
Drops below altitude 10° 07:43:00 10° 61° (ENE) 3,517 ? 21.8°
Sets 07:44:57 0° 64° (ENE) 4,205 ? 22.3°
